Flag for Romania Weather past 2 weeks in Bucharest, Romania

Now
59 °F

Clear.


Feels Like: 60 °F
Forecast: 55 / 74 °F
Wind: 3 mph from Northeast

Location: Bucharest / Imh

Current Time: Sep 16, 2014 at 5:00:30 AM

Latest Report: Sep 16, 2014 at 4:30 AM


Visibility: 10 mi

Pressure: 30.04 "Hg

Humidity: 68%

Dew point: 48 °F

Location of BucharestLocation

Historic Weather in Bucharest — Graph

°F

Bucharest temperature yesterday

Maximum temperature yesterday: 81 °F (at 3:00 PM)
Minimum temperature yesterday: 57 °F (at 6:00 AM)
Average temperature yesterday: 69 °F

Past Weeks' High & Low Weather Summary

 TemperatureHumidityPressure
High86 °F (Sep 2, 4:00 PM)100% (Sep 13, 6:00 AM)30.09 "Hg (Sep 13, 6:00 AM)
Low55 °F (Sep 1, 5:30 AM)18% (Sep 11, 5:00 PM)29.77 "Hg (Sep 2, 5:00 PM)
Average71 °F57%29.95 "Hg
* Reported Sep 1 4:00 AM — Sep 16 4:00 AM, Bucharest, Weather by CustomWeather, © 2014

Note: Actual official high and low records may vary slightly from our data, if they occured in-between our weather recording intervals... More about our weather records

Advertising

Bucharest weather history for previous 24 hours

 ConditionsComfort  
Time TempWeatherWind HumidityBarometerVisibility
4:00 AM
Sep 16
61 °FPassing clouds.7 mph63%30.04 "HgN/A
3:30 AM57 °FClear.3 mph72%30.04 "Hg10 mi
3:00 AM59 °FPassing clouds.3 mph68%30.01 "HgN/A
2:30 AM61 °FCool.3 mph63%30.01 "HgN/A
2:00 AM57 °FCool.3 mph72%30.01 "HgN/A
1:30 AM61 °FPassing clouds.3 mph63%30.01 "HgN/A
1:00 AM61 °FPassing clouds.3 mph63%30.01 "HgN/A
12:30 AM61 °FClear.No wind63%30.01 "Hg10 mi
12:00 AM63 °FClear.2 mph59%30.01 "Hg10 mi
11:30 PM
Sep 15
63 °FClear.5 mph59%30.01 "Hg10 mi
11:00 PM64 °FClear.5 mph56%30.01 "Hg10 mi
10:30 PM64 °FClear.5 mph56%30.01 "Hg10 mi
10:00 PM68 °FClear.6 mph49%30.01 "Hg10 mi
9:30 PM70 °FClear.8 mph46%30.01 "Hg10 mi
9:00 PM72 °FClear.12 mph38%30.01 "Hg10 mi
8:30 PM68 °FClear.5 mph43%29.98 "Hg10 mi
8:00 PM70 °FSunny.2 mph38%29.98 "Hg10 mi
7:30 PM72 °FSunny.3 mph36%29.98 "Hg10 mi
7:00 PM73 °FSunny.5 mph31%29.98 "Hg10 mi
6:30 PM79 °FSunny.13 mph24%29.98 "Hg10 mi
6:00 PM79 °FPassing clouds.12 mph23%29.98 "HgN/A
5:30 PM79 °FSunny.13 mph23%29.98 "Hg10 mi
5:00 PM79 °FSunny.12 mph24%29.98 "Hg10 mi
4:30 PM81 °FPassing clouds.12 mph24%29.98 "HgN/A
4:00 PM81 °FPassing clouds.12 mph23%29.98 "HgN/A
3:30 PM81 °FPassing clouds.13 mph23%30.01 "HgN/A
3:00 PM81 °FPassing clouds.12 mph24%30.01 "HgN/A
2:30 PM79 °FPassing clouds.12 mph26%30.01 "HgN/A
2:00 PM77 °FPassing clouds.13 mph32%30.01 "HgN/A
1:30 PM79 °FPassing clouds.15 mph34%30.04 "HgN/A
1:00 PM77 °FPassing clouds.14 mph36%30.04 "HgN/A
12:30 PM77 °FScattered clouds.12 mph39%30.04 "HgN/A
12:00 PM75 °FScattered clouds.14 mph44%30.04 "HgN/A
11:30 AM75 °FPassing clouds.15 mph44%30.04 "HgN/A
11:00 AM73 °FPassing clouds.14 mph44%30.04 "HgN/A
10:30 AM73 °FPassing clouds.13 mph50%30.04 "HgN/A
10:00 AM70 °FSunny.14 mph60%30.07 "Hg10 mi
9:30 AM68 °FPassing clouds.9 mph69%30.04 "HgN/A
9:00 AM66 °FPassing clouds.8 mph73%30.04 "HgN/A
8:30 AM63 °FPassing clouds.7 mph83%30.04 "HgN/A
8:00 AM61 °FPassing clouds.6 mph94%30.04 "HgN/A
7:30 AM59 °FClear.6 mph94%30.04 "Hg10 mi
7:00 AM59 °FClear.6 mph94%30.04 "Hg10 mi
6:30 AM59 °FPassing clouds.6 mph94%30.04 "HgN/A
6:00 AM57 °FPassing clouds.5 mph100%30.04 "HgN/A
5:30 AM59 °FPassing clouds.5 mph94%30.04 "HgN/A
5:00 AM59 °FPassing clouds.3 mph94%30.04 "HgN/A
Weather by CustomWeather, © 2014

See weather overviewHow to use our weather pages